sat.trackr.live / text

‹ back to catalog

STARLINK-37974

NORAD 69699 · 2026-145Y

PAYLOAD ACTIVE UNKNOWN

§ Identity

Operator
Country
US
Launch date
2026-06-25
Launch site
AFWTR
Launch vehicle
Mass (kg)
RCS (m²)

Purposes: comms

External: N2YO · Heavens-Above · Gunter

§ Orbital elements

Epoch: 2026-09-19T08:41:11.941728Z

Period
93.91 min
Inclination
97.2848°
Eccentricity
0.0001898
Mean motion
15.33448575 rev/d
Perigee alt
464.2 km
Apogee alt
466.8 km
Semi-major
6,843.7 km
B*
3.6957e-4
RAAN
109.1182°
Arg perigee
90.0193°
Mean anomaly
270.1268°
Rev number
1,337

§ Raw data

STARLINK-379741 69699U 26145Y   26262.36194377  .00011876  00000+0  36957-3 0  99902 69699  97.2848 109.1182 0001898  90.0193 270.1268 15.33448575 13374

JSON: /api/v1/satellites/69699 · /tle

For live sub-satellite position, see the globe view (requires WebGL).

§ Visibility from observer

Set your observer location to see the next 7 days of passes ≥ 10°. The values pass through the URL so the page stays shareable.

No JS? Fill the form by hand. The geolocation button needs JavaScript.